TimeAKST,TemperatureF,Dew PointF,Humidity,Sea Level PressureIn,VisibilityMPH,Wind Direction,Wind SpeedMPH,Gust SpeedMPH,PrecipitationIn,Events,Conditions,WindDirDegrees,DateUTC
12:53 AM,34.0,33.1,96,30.10,10.0,NNE,3.5,-,N/A,,Overcast,30,2012-12-29 09:53:00
1:53 AM,34.0,32.0,92,30.11,10.0,Calm,Calm,-,N/A,,Overcast,0,2012-12-29 10:53:00
3:53 AM,34.0,33.1,96,30.13,10.0,Calm,Calm,-,N/A,,Overcast,0,2012-12-29 12:53:00
4:34 AM,33.8,33.8,100,30.14,10.0,NNE,4.6,-,N/A,,Overcast,20,2012-12-29 13:34:00
4:53 AM,34.0,33.1,96,30.14,10.0,Calm,Calm,-,N/A,,Overcast,0,2012-12-29 13:53:00
5:53 AM,35.1,33.1,92,30.14,10.0,Calm,Calm,-,N/A,,Overcast,0,2012-12-29 14:53:00
6:53 AM,35.1,33.1,92,30.14,10.0,Calm,Calm,-,N/A,,Overcast,0,2012-12-29 15:53:00
7:53 AM,35.1,34.0,96,30.14,10.0,NE,3.5,-,N/A,,Overcast,50,2012-12-29 16:53:00
8:53 AM,36.0,34.0,93,30.15,10.0,ENE,3.5,-,0.00,,Overcast,60,2012-12-29 17:53:00
9:53 AM,36.0,34.0,93,30.14,10.0,NNE,4.6,-,0.00,,Overcast,20,2012-12-29 18:53:00
10:11 AM,37.4,35.6,93,30.14,10.0,NNE,4.6,-,N/A,,Overcast,30,2012-12-29 19:11:00
10:53 AM,37.9,35.1,89,30.14,10.0,NNE,5.8,-,N/A,,Overcast,20,2012-12-29 19:53:00
11:53 AM,37.9,35.1,89,30.15,10.0,Calm,Calm,-,N/A,,Overcast,0,2012-12-29 20:53:00
12:53 PM,39.0,36.0,89,30.14,10.0,North,4.6,-,N/A,,Overcast,10,2012-12-29 21:53:00
1:53 PM,39.0,36.0,89,30.13,10.0,Calm,Calm,-,N/A,,Overcast,0,2012-12-29 22:53:00
2:53 PM,39.0,36.0,89,30.12,10.0,Calm,Calm,-,N/A,,Overcast,0,2012-12-29 23:53:00
3:53 PM,37.9,36.0,93,30.12,10.0,ENE,3.5,-,N/A,,Overcast,60,2012-12-30 00:53:00
4:53 PM,37.9,36.0,93,30.10,10.0,Calm,Calm,-,N/A,,Overcast,0,2012-12-30 01:53:00
6:53 PM,37.9,35.1,89,30.06,10.0,Calm,Calm,-,N/A,,Overcast,0,2012-12-30 03:53:00
7:53 PM,37.9,35.1,89,30.05,10.0,NNE,4.6,-,N/A,,Mostly Cloudy,20,2012-12-30 04:53:00
8:53 PM,39.0,36.0,89,30.04,10.0,NNE,5.8,-,N/A,,Overcast,30,2012-12-30 05:53:00
9:53 PM,39.0,36.0,89,30.04,10.0,Calm,Calm,-,N/A,,Overcast,0,2012-12-30 06:53:00
10:53 PM,39.9,36.0,86,30.03,10.0,NE,3.5,-,N/A,,Overcast,40,2012-12-30 07:53:00
11:53 PM,39.0,36.0,89,30.01,10.0,NNE,4.6,-,N/A,,Overcast,30,2012-12-30 08:53:00